Logrono, Spain

7:42 AM CEST on April 26, 2017 (GMT +0200)
Logrono

Weather History for LELO - August, 2013

Change the Weather History Date:

Wednesday, August 21, 2013

  Actual Average (LEVT) Record (LEVT)
Temperature  
Mean Temperature 73 °F -  
Max Temperature 92 °F 79 °F 98 °F (2001)
Min Temperature 54 °F 55 °F 44 °F (2016)
Cooling Degree Days 8    
Growing Degree Days 23 (Base 50)    
Moisture  
Dew Point 55 °F    
Average Humidity 60    
Maximum Humidity 94    
Minimum Humidity 11    
Precipitation  
Precipitation 0.00 in 0.03 in - ()
Sea Level Pressure  
Sea Level Pressure 30.09 in    
Wind  
Wind Speed 2 mph ()    
Max Wind Speed 7 mph    
Max Gust Speed -    
Visibility 16.0 miles    
Events      
Averages and records for this station are not official NWS values.
T = Trace of Precipitation, MM = Missing Value Source: Averaged Metar Reports

Daily Weather History Graph

Daily Weather History Graph

Search for Another Location

Airport or City:

Trip Planner

Search our weather history database for the weather conditions in past years. The results will help you decide how hot, cold, wet, or windy it might be!

Date:

Astronomy

Aug. 21, 2013 Rise Set
Actual Time 7:22 AM CEST 9:01 PM CEST
Civil Twilight 6:52 AM CEST 9:31 PM CEST
Nautical Twilight 6:16 AM CEST 10:07 PM CEST
Astronomical Twilight 5:38 AM CEST 10:45 PM CEST
Moon 8:58 PM CEST (8/21) 7:47 AM CEST (8/21)
Length of Visible Light 14h 38m
Length of Day
13h 38m
Full, 100% of the Moon is Illuminated
Aug 21
Full
Aug 28
Last Quarter
Sep 5
New
Sep 12
First Quarter
Sep 19
Full

Hourly Weather History & Observations

Time (CEST) Temp. Heat Index Dew Point Humidity Pressure Visibility Wind Dir Wind Speed Gust Speed Precip Events Conditions
12:00 AM 66.2 °F - 59.0 °F 78% 30.18 in - Calm Calm - N/A   Clear
1:00 AM 64.4 °F - 59.0 °F 83% 30.18 in - Variable 1.2 mph - N/A   Clear
2:00 AM 60 °F - 53 °F 72% 30.17 in 16 mi Calm Calm - -  
2:00 AM 62.6 °F - 57.2 °F 82% 30.18 in - Calm Calm - N/A   Clear
3:00 AM 60.8 °F - 59.0 °F 94% 30.15 in - Variable 1.2 mph - N/A   Clear
4:00 AM 59.0 °F - 57.2 °F 94% 30.15 in - Variable 2.3 mph - N/A   Clear
5:00 AM 59.0 °F - 57.2 °F 94% 30.15 in - Calm Calm - N/A   Clear
6:00 AM 57.2 °F - 55.4 °F 94% 30.15 in - Variable 1.2 mph - N/A   Clear
7:00 AM 57.2 °F - 55.4 °F 94% 30.15 in - Calm Calm - N/A   Clear
8:00 AM 56 °F - 50 °F 73% 30.17 in 25 mi West 2.3 mph - -  
8:00 AM 55.4 °F - 53.6 °F 94% 30.15 in - Variable 1.2 mph - N/A   Clear
9:00 AM 60.8 °F - 55.4 °F 82% 30.15 in - Variable 1.2 mph - N/A   Clear
10:00 AM 66.2 °F - 55.4 °F 68% 30.15 in - West 3.5 mph - N/A   Clear
11:00 AM 71.6 °F - 57.2 °F 60% 30.15 in - Variable 1.2 mph - N/A   Clear
12:00 PM 77.0 °F - 57.2 °F 50% 30.12 in - East 3.5 mph - N/A   Clear
1:00 PM 80.6 °F 80.8 °F 57.2 °F 45% 30.12 in - East 6.9 mph - N/A   Clear
2:00 PM 83 °F - 50 °F 22% 30.04 in 28 mi East 6.9 mph - -  
2:00 PM 84.2 °F 83.5 °F 57.2 °F 40% 30.09 in - East 6.9 mph - N/A   Clear
3:00 PM 87.8 °F - 51.8 °F 29% 30.06 in - East 5.8 mph - N/A   Clear
4:00 PM 89.6 °F - 50.0 °F 26% 30.04 in - East 4.6 mph - N/A   Clear
5:00 PM 91.4 °F - 50.0 °F 24% 30.01 in - ESE 5.8 mph - N/A   Clear
6:00 PM 93.2 °F - 46.4 °F 20% 30.01 in - East 5.8 mph - N/A   Clear
7:00 PM 91.4 °F - 46.4 °F 21% 30.01 in - East 4.6 mph - N/A   Clear
8:00 PM 89 °F - 41 °F 11% 29.91 in 28 mi East 6.9 mph - -  
8:00 PM 87.8 °F - 51.8 °F 29% 29.98 in - Variable 2.3 mph - N/A   Clear
9:00 PM 78.8 °F - 62.6 °F 57% 29.98 in - Variable 2.3 mph - N/A   Clear
10:00 PM 71.6 °F - 62.6 °F 73% 30.01 in - Calm Calm - N/A   Clear
11:00 PM 69.8 °F - 60.8 °F 73% 30.01 in - Calm Calm - N/A   Clear